Wind_Speed
11 9 7 4 3 2 3 2 2 2 3 2 1 1 2 2 2 2 2 3 4 5 6 5 6 6 6 7 7 7 7 9
11 8 5 3 2 2 3 3 3 3 2 3 2 2 3 3 3 4 4 5 6 6 7 7 6 6 7 7 6 7 7 9
11 9 6 3 1 1 1 1 2 4 4 5 4 3 3 4 4 5 5 5 6 7 8 7 7 7 7 9 8 7 7 8
13 10 7 5 4 4 3 2 4 5 6 6 6 5 5 5 6 7 8 8 6 6 6 9 9 9 9 9 11 11 10 9
15 11 10 8 9 9 8 7 8 8 7 7 9 9 9 9 9 9 9 9 8 8 7 6 8 10 10 11 12 12 11 10
15 13 10 9 10 12 12 11 10 10 10 10 10 10 11 12 11 11 11 10 10 9 8 9 8 9 10 9 9 9 11 11
18 14 11 10 10 11 12 12 12 12 13 12 12 12 13 14 14 14 13 12 11 10 9 10 8 6 5 5 6 7 7 8
18 15 12 9 7 8 8 10 11 13 14 14 14 15 16 16 15 15 15 14 13 12 10 9 8 7 6 6 6 6 6 8
20 14 11 8 7 8 8 8 10 12 14 15 16 16 16 17 16 17 17 16 14 13 12 11 9 7 6 5 6 6 5 5
16 12 9 8 7 8 9 10 11 12 14 15 17 18 17 17 18 18 17 18 17 15 14 12 10 9 8 6 5 5 3 6
16 13 10 8 8 8 11 12 13 13 14 17 19 21 21 21 22 21 19 19 20 19 18 16 14 12 10 9 8 7 5 3
15 13 11 9 8 9 11 13 14 15 15 19 21 23 25 27 27 26 23 23 24 22 22 20 19 15 13 13 13 11 10 6
15 13 11 10 9 11 12 15 15 17 17 21 24 27 29 30 31 31 29 29 30 28 26 24 23 19 13 13 15 15 16 12
14 12 11 11 13 11 11 14 18 23 26 28 29 30 34 36 37 38 37 35 35 33 31 29 27 22 9 3 2 5 14 14
10 10 11 11 12 15 17 20 22 26 30 30 31 35 36 35 39 45 45 42 41 40 38 36 29 24 23 8 1 5 1 6
9 10 8 7 9 13 15 19 23 29 29 31 30 28 31 31 31 35 44 46 43 42 38 33 25 16 13 14 5 2 3 3
10 12 12 14 18 21 22 24 25 27 29 28 28 29 27 28 28 27 33 36 35 29 19 15 13 9 2 0 5 3 6 3
16 17 20 22 23 23 22 22 25 28 30 30 32 31 28 26 24 20 17 12 9 14 17 14 10 8 6 8 5 4 3 3
18 19 22 24 21 18 19 21 26 31 33 34 34 30 24 19 12 5 15 18 15 13 14 14 10 9 8 8 8 10 10 12
19 18 23 24 20 20 20 23 27 30 32 34 32 20 10 4 15 16 12 10 9 13 13 11 5 6 7 8 12 15 15 14
Wind_Direction
143 139 137 140 103 73 36 359 2 353 3 1 32 16 335 332 350 352 346 314 310 307 323 329 338 355 358 356 355 352 333 334
163 160 156 138 152 75 41 9 342 341 319 279 274 264 272 289 300 301 296 297 310 321 330 331 333 342 346 352 354 343 338 330
180 185 181 187 192 120 49 15 335 331 311 285 279 279 284 297 293 300 296 287 288 292 298 305 305 304 310 324 336 340 337 327
199 202 208 214 230 214 223 244 258 283 292 284 273 271 272 280 288 294 300 298 293 286 284 289 294 297 299 304 318 330 328 320
207 211 219 229 231 227 224 231 247 265 272 280 281 280 278 279 283 283 289 293 293 291 294 295 296 300 301 306 311 319 327 337
211 208 221 231 231 236 233 235 246 259 261 271 277 276 278 284 284 283 282 282 285 292 297 304 300 295 301 310 315 311 313 328
205 207 214 213 225 228 232 243 253 255 255 264 270 272 280 284 286 284 285 288 288 292 293 299 302 311 320 333 342 351 357 349
203 208 209 213 229 244 249 248 257 260 260 258 261 271 276 275 277 277 277 281 284 286 293 299 303 314 327 336 348 352 355 356
204 201 206 215 237 248 253 259 262 264 263 265 265 267 276 277 276 275 277 271 267 268 276 283 283 290 301 313 323 333 338 352
201 202 210 226 245 259 259 259 266 273 269 265 264 266 268 268 269 272 275 266 257 255 258 259 261 271 282 296 303 316 318 347
202 207 218 235 251 263 259 263 271 272 272 276 271 265 264 261 262 265 260 254 246 249 248 244 244 250 262 273 284 291 277 319
200 211 223 231 246 261 266 272 283 280 289 289 286 275 267 261 258 255 253 250 248 244 243 241 244 246 247 256 263 269 264 230
197 213 223 229 241 261 275 279 291 292 298 299 294 285 279 266 261 256 250 244 249 248 244 242 243 243 246 256 260 256 256 229
208 225 233 244 249 265 282 295 300 304 303 301 298 289 281 271 268 264 254 246 243 242 239 238 240 238 223 223 299 264 216 229
231 250 264 278 292 299 306 308 306 307 309 308 306 302 298 292 283 270 263 253 246 243 238 235 231 227 220 204 150 228 301 232
275 291 313 348 0 350 340 328 318 315 313 311 311 310 309 305 297 285 272 262 254 248 244 239 232 215 215 225 234 142 189 309
64 69 44 14 359 353 341 329 325 326 328 326 327 324 318 312 305 292 278 266 259 251 239 221 201 181 120 316 307 292 242 238
29 15 5 352 343 340 344 344 341 337 331 324 325 321 315 308 304 297 273 243 191 145 124 111 63 54 6 332 313 314 331 313
4 357 351 345 341 344 348 348 344 335 328 321 319 317 313 312 302 195 134 120 99 73 47 27 14 358 333 327 312 301 294 284
354 347 342 340 334 338 340 341 339 335 329 318 313 306 295 164 134 121 102 85 41 3 358 350 346 352 327 306 298 289 287 278
Height
825 827 829 830 829 829 828 828 829 830 831 832 832 831 830 830 829 828 828 827 827 827 827 828 827 827 826 826 825 825 826 825
828 828 829 828 829 829 828 828 830 830 831 831 831 831 830 829 829 829 829 828 828 828 827 826 826 826 825 825 825 825 825 825
827 828 828 828 828 828 829 830 830 831 831 831 831 831 831 830 829 829 828 827 827 826 825 825 824 825 825 823 824 824 824 824
825 826 827 827 828 828 829 829 830 830 830 830 831 831 830 830 830 829 827 827 827 826 825 824 823 823 822 822 821 821 821 822
823 824 826 826 827 827 828 828 829 829 830 830 830 830 830 829 829 828 828 827 826 825 824 823 822 821 821 820 820 819 820 820
822 823 824 825 826 826 827 827 828 828 829 829 829 828 828 827 826 825 825 824 824 823 823 822 821 821 820 819 819 818 818 818
819 821 823 824 824 825 826 826 826 827 828 828 828 828 828 827 826 825 824 823 823 822 822 821 820 820 819 818 817 816 816 815
818 820 823 824 824 825 825 825 825 826 826 827 827 827 826 825 825 824 823 822 821 821 820 820 818 817 816 815 814 814 813 813
818 821 823 824 824 824 823 824 824 824 825 825 825 825 824 823 822 821 820 819 819 819 818 817 816 816 815 814 813 813 812 812
820 822 823 823 824 824 824 824 823 823 822 821 821 820 820 819 818 817 817 816 816 815 815 815 815 814 813 812 812 812 811 810
819 822 822 822 822 823 823 822 820 819 818 818 818 817 816 815 813 812 812 811 810 810 810 810 810 810 810 810 809 809 809 808
818 820 820 820 820 820 820 818 817 816 814 813 813 811 811 810 809 808 808 808 806 805 805 805 805 805 806 805 805 805 805 805
816 817 818 818 818 819 818 817 816 814 812 810 809 808 806 805 803 802 803 801 800 800 800 800 801 801 801 800 799 799 799 801
814 815 817 817 817 817 817 816 814 812 810 808 806 804 802 799 797 794 794 794 794 794 793 793 794 795 796 798 798 795 793 794
814 815 816 817 817 817 816 814 811 808 807 805 803 799 797 794 791 788 786 786 784 784 786 786 786 788 789 792 797 794 791 788
814 815 815 816 815 815 814 812 809 807 803 800 797 794 791 787 784 782 780 779 778 778 779 781 784 785 788 788 787 786 789 789
815 815 814 814 813 812 810 808 806 802 799 795 792 788 785 780 778 775 773 772 773 775 776 778 778 783 786 787 788 786 787 788
816 814 813 812 811 810 808 806 802 797 793 790 786 782 777 774 770 768 767 769 772 773 772 773 779 780 784 788 789 790 788 787
816 815 814 814 812 809 806 802 799 795 789 783 780 776 772 768 766 764 765 769 772 773 774 775 776 778 784 783 785 787 787 787
818 816 815 814 811 807 804 801 798 792 787 781 777 773 770 769 769 768 769 770 772 773 775 777 776 775 778 782 783 785 783 783